Terminal Aerodrome Forecast
Issued by NWS

Home | Current Version | Previous Version | Text Only | Print | Product List | Glossary On
Versions: 1 2 3 4 5 6 7 8 9 10 11 12 13 14 15 16 17 18 19 20 21 22 23 24 25 26 27 28
000
FTUS44 KBMX 290113 AAA
TAFEET
TAF AMD
KEET 290113Z 2901/2924 10005KT P6SM VCSH SCT015 BKN040
      TEMPO 2901/2903 3SM SHRA BKN025
     FM290900 00000KT 5SM BR BKN010
     FM291500 16004KT P6SM BKN250
     FM291700 16005KT P6SM VCTS BKN050CB
     FM291900 14007KT 4SM SHRA VCTS BKN025CB OVC050=

USA.gov is the U.S. government's official web portal to all federal, state and local government web resources and services.